This is the latest recevied weather packets stored in our database for station/object N3MFL. If no packets are shown the sender has not sent any weather packets the latest 10 day(s).
| Time | Temp. | Humidity | Pressure | Rain* | Wind** | Luminosity | Snow |
|---|---|---|---|---|---|---|---|
| 1777741661 | 11.67° C | 79% | 1012.6 hPa | 0 mm | - | 71 W/m² | - |
| 1777740447 | 12.22° C | 75% | 1012.6 hPa | 0 mm | - | 92 W/m² | - |
| 1777739840 | 13.33° C | 71% | 1012.4 hPa | 0 mm | - | 75 W/m² | - |
| 1777739234 | 13.89° C | 68% | 1012.4 hPa | 0 mm | - | 178 W/m² | - |
| 1777738628 | 13.89° C | 66% | 1012.2 hPa | 0 mm | - | 402 W/m² | - |
| 1777738023 | 13.33° C | 65% | 1012.4 hPa | 0 mm | - | 287 W/m² | - |
| 1777737420 | 13.89° C | 68% | 1012.5 hPa | 0 mm | - | 121 W/m² | - |
| 1777736183 | 13.33° C | 68% | 1012.7 hPa | 0 mm | - | 194 W/m² | - |
| 1777735881 | 13.33° C | 70% | 1012.8 hPa | 0 mm | - | 230 W/m² | - |
| 1777735578 | 12.78° C | 70% | 1012.8 hPa | 0 mm | - | 229 W/m² | - |
| 1777735275 | 12.78° C | 71% | 1012.6 hPa | 0 mm | - | 116 W/m² | - |
| 1777734972 | 12.78° C | 70% | 1013.4 hPa | 0 mm | - | 92 W/m² | - |
| 1777734670 | 13.33° C | 71% | 1013 hPa | 0 mm | - | 101 W/m² | - |
| 1777734367 | 12.78° C | 70% | 1012.7 hPa | 0 mm | - | 180 W/m² | - |
| 1777734063 | 12.78° C | 72% | 1012.8 hPa | 0 mm | - | 110 W/m² | - |
| 1777733760 | 13.33° C | 70% | 1012.8 hPa | 0 mm | - | 192 W/m² | - |
| 1777733456 | 13.33° C | 73% | 1013.1 hPa | 0 mm | - | 289 W/m² | - |
| 1777733152 | 12.78° C | 71% | 1013.4 hPa | 0 mm | - | 150 W/m² | - |
| 1777732849 | 12.78° C | 71% | 1013 hPa | 0 mm | - | 135 W/m² | - |
| 1777732546 | 12.78° C | 71% | 1013.1 hPa | 0 mm | - | 75 W/m² | - |
| 1777732244 | 12.78° C | 71% | 1013.1 hPa | 0 mm | - | 66 W/m² | - |
| 1777731941 | 13.33° C | 68% | 1013 hPa | 0 mm | - | 106 W/m² | - |
| 1777731637 | 13.89° C | 67% | 1012.7 hPa | 0 mm | - | 263 W/m² | - |
| 1777731335 | 13.33° C | 68% | 1012.8 hPa | 0 mm | - | 205 W/m² | - |
| 1777731032 | 13.89° C | 68% | 1013.2 hPa | 0 mm | - | 292 W/m² | - |
* Rain latest hour (hover to see other rain measurements)
** Current wind speed in m/s (hover to see current wind gust speed)